Location: Radomski Observatory
(40.2854°N, 79.5145°W)
Time: 22:01:03
(UTC-04:00)

Cosmos 1072 Rocket - Visible Passes

Search period start: 24 September 2016 00:00
Search period end: 04 October 2016 00:00
Orbit: 948 x 1009 km, 82.9° (Epoch: 24 September)

Date Brightness Start Highest point End Pass type
(mag) Time Alt. Az. Time Alt. Az. Time Alt. Az.
24 Sep 7.0 06:27:13 10° NNE 06:32:17 26° ENE 06:37:23 10° SE visible
24 Sep 4.5 19:56:15 10° S 20:02:13 58° E 20:08:11 10° NNE visible
24 Sep 6.9 21:43:40 10° WSW 21:48:04 20° WNW 21:52:30 10° NNW visible
25 Sep 4.6 20:22:24 10° S 20:28:31 77° W 20:34:39 10° N visible
25 Sep 7.5 22:14:03 10° WNW 22:15:01 10° WNW 22:15:59 10° NW visible
26 Sep 7.6 05:36:34 10° NE 05:39:01 12° ENE 05:41:28 10° E visible
26 Sep 5.7 20:49:17 10° SSW 20:55:00 41° WNW 21:00:46 10° N visible
27 Sep 7.1 06:01:03 10° NNE 06:05:55 23° ENE 06:10:49 10° ESE visible
27 Sep 4.6 19:30:03 10° SSE 19:35:56 51° E 19:41:49 10° NNE visible
27 Sep 6.8 21:17:01 10° WSW 21:21:42 23° WNW 21:26:24 10° NNW visible
28 Sep 6.0 06:26:43 10° N 06:32:36 42° ENE 06:38:32 10° SSE visible
28 Sep 4.5 19:56:05 10° S 20:02:12 85° W 20:08:21 10° N visible
28 Sep 7.5 21:46:28 10° W 21:48:36 12° WNW 21:50:44 10° NW visible
29 Sep 7.7 05:11:00 10° NE 05:12:37 11° ENE 05:14:14 10° E visible
29 Sep 5.6 20:22:51 10° SSW 20:28:39 46° WNW 20:34:31 10° N visible
30 Sep 7.1 05:34:55 10° NNE 05:39:33 21° ENE 05:44:13 10° ESE visible
30 Sep 6.7 20:50:24 10° SW 20:55:19 25° WNW 21:00:15 10° NNW visible
01 Oct 6.1 06:00:29 10° N 06:06:16 38° ENE 06:12:06 10° SE visible
01 Oct 4.5 19:29:48 10° S 19:35:54 86° E 19:42:03 10° N visible
01 Oct 7.5 21:19:21 10° W 21:22:11 13° WNW 21:25:01 10° NW visible
02 Oct 4.9 06:26:32 10° N 06:32:48 70° E 06:39:07 10° SSE visible
02 Oct 5.4 19:56:25 10° SSW 20:02:19 51° WNW 20:08:17 10° N visible
03 Oct 7.1 05:08:50 10° NNE 05:13:11 19° ENE 05:17:34 10° ESE visible
03 Oct 6.6 20:23:49 10° SW 20:28:56 28° WNW 20:34:06 10° NNW visible
